Satellite-Ground Cal/Val Region Overpasses Predictions

Prediction of Satellite NPP Overpassing Cal/Val Region: PacNW

Region Location: (Latitude: 10.00, Longitude: 139.50) to (Latitude: 22.70, Longitude: 165.60).

Table of predicted overpasses for the next 14.0 days since TLE Epoch: 4/3/2015
Interval Starting Time Starting Location Ending Time Ending Location
1 04/04/2015 03:29:14 ( 10.03, 148.81) 04/04/2015 03:32:49 ( 22.66, 145.81)
2 04/04/2015 16:01:07 ( 22.65, 146.02) 04/04/2015 16:04:42 ( 10.03, 143.02)
3 04/05/2015 03:10:11 ( 10.02, 153.57) 04/05/2015 03:13:46 ( 22.65, 150.58)
4 04/05/2015 15:42:03 ( 22.66, 150.78) 04/05/2015 15:45:38 ( 10.04, 147.79)
5 04/06/2015 02:51:07 ( 10.02, 158.33) 04/06/2015 02:54:42 ( 22.64, 155.34)
6 04/06/2015 15:23:00 ( 22.67, 155.54) 04/06/2015 15:26:35 ( 10.04, 152.55)
7 04/07/2015 02:32:04 ( 10.01, 163.09) 04/07/2015 02:35:40 ( 22.70, 160.08)
8 04/07/2015 15:03:56 ( 22.67, 160.30) 04/07/2015 15:07:31 ( 10.05, 157.31)
9 04/08/2015 02:15:44 ( 19.64, 165.60) 04/08/2015 02:16:36 ( 22.69, 164.85)
10 04/08/2015 03:54:30 ( 10.02, 142.48) 04/08/2015 03:58:03 ( 22.53, 139.51)
11 04/08/2015 14:44:53 ( 22.68, 165.06) 04/08/2015 14:48:28 ( 10.05, 162.07)
12 04/08/2015 16:26:23 ( 22.66, 139.69) 04/08/2015 16:26:35 ( 21.96, 139.51)
13 04/09/2015 03:35:27 ( 10.02, 147.24) 04/09/2015 03:39:02 ( 22.64, 144.24)
14 04/09/2015 16:07:19 ( 22.67, 144.45) 04/09/2015 16:10:54 ( 10.04, 141.45)
15 04/10/2015 03:16:23 ( 10.02, 152.00) 04/10/2015 03:19:58 ( 22.64, 149.00)
16 04/10/2015 15:48:16 ( 22.67, 149.21) 04/10/2015 15:51:51 ( 10.05, 146.21)
17 04/11/2015 02:57:20 ( 10.02, 156.76) 04/11/2015 03:00:55 ( 22.64, 153.76)
18 04/11/2015 15:29:12 ( 22.67, 153.97) 04/11/2015 15:32:47 ( 10.04, 150.97)
19 04/12/2015 02:38:16 ( 10.02, 161.52) 04/12/2015 02:41:51 ( 22.64, 158.53)
20 04/12/2015 15:10:09 ( 22.66, 158.73) 04/12/2015 15:13:44 ( 10.04, 155.73)
21 04/13/2015 02:20:04 ( 13.02, 165.59) 04/13/2015 02:22:48 ( 22.65, 163.28)
22 04/13/2015 04:00:43 ( 10.03, 140.90) 04/13/2015 04:02:26 ( 16.09, 139.50)
23 04/13/2015 14:51:06 ( 22.66, 163.49) 04/13/2015 14:54:41 ( 10.04, 160.49)
24 04/14/2015 03:41:39 ( 10.04, 145.66) 04/14/2015 03:45:14 ( 22.66, 142.67)
25 04/14/2015 14:35:12 ( 11.51, 165.59) 04/14/2015 14:35:37 ( 10.04, 165.25)
26 04/14/2015 16:13:32 ( 22.64, 142.87) 04/14/2015 16:17:07 ( 10.02, 139.88)
27 04/15/2015 03:22:36 ( 10.05, 150.42) 04/15/2015 03:26:11 ( 22.67, 147.43)
28 04/15/2015 15:54:28 ( 22.70, 147.64) 04/15/2015 15:58:04 ( 10.02, 144.64)
29 04/16/2015 03:03:32 ( 10.05, 155.18) 04/16/2015 03:07:07 ( 22.68, 152.19)
30 04/16/2015 15:35:24 ( 22.69, 152.40) 04/16/2015 15:39:00 ( 10.01, 149.40)
31 04/17/2015 02:44:28 ( 10.00, 159.95) 04/17/2015 02:48:04 ( 22.68, 156.94)


NCC Satellite Cal/Val Overpasses Prediction Service
